Location: Observatory
(52.1446°N, 0.4624°W)
Time: 04:01:55
(UTC+00:00)

ISS - Pass Details

Date: 30 October 2021
Orbit: 417 x 423 km, 51.6° (Epoch: 02 December)

Event Time Altitude Azimuth Distance (km) Brightness Sun altitude
Exits shadow 06:06:10 45° 249° (WSW) 580 -3.5 -16.9°
Maximum altitude 06:07:04 78° 172° (S) 435 -3.8 -16.8°
Drops below altitude 10° 06:10:26 10° 86° (E) 1,503 0.4 -16.3°
Sets 06:12:32 0° 85° (E) 2,366 1.9 -15.9°
